Aurora, OR

4:56 PM PDT on May 22, 2018 (GMT -0700)
Aurora State

Weather History for KUAO - February, 2013

Change the Weather History Date:

Friday, February 15, 2013

  Actual Average Record
Temperature  
Mean Temperature 50 °F -  
Max Temperature 62 °F - 64 °F (2015)
Min Temperature 40 °F - 28 °F (2006)
Degree Days  
Heating Degree Days 14    
Month to date heating degree days 311  
Since 1 July heating degree days 2841  
Cooling Degree Days 0    
Month to date cooling degree days 0  
Year to date cooling degree days 0  
Moisture  
Dew Point 42 °F    
Average Humidity 74    
Maximum Humidity 100    
Minimum Humidity 48    
Precipitation  
Precipitation 0.00 in - 1.01 in (2017)
Month to date precipitation 0.47  
Year to date precipitation 2.48  
Sea Level Pressure  
Sea Level Pressure 30.36 in    
Wind  
Wind Speed 4 mph (NNE)    
Max Wind Speed 13 mph    
Max Gust Speed 16 mph    
Visibility 9 miles    
Events      
T = Trace of Precipitation, MM = Missing Value Source: NWS Daily Summary

Daily Weather History Graph

Daily Weather History Graph

Search for Another Location

Airport or City:

Astronomy

Feb. 15, 2013 Rise Set
Actual Time 7:11 AM PST 5:39 PM PST
Civil Twilight 6:41 AM PST 6:09 PM PST
Nautical Twilight 6:07 AM PST 6:44 PM PST
Astronomical Twilight 5:32 AM PST 7:18 PM PST
Moon 9:32 AM PST (2/15) No Moon Set
Length of Visible Light 11h 27m
Length of Day
10h 27m
Waxing Crescent, 31% of the Moon is Illuminated
Feb 15
Waxing Crescent
Feb 17
First Quarter
Feb 25
Full
Mar 4
Last Quarter
Mar 11
New

Hourly Weather History & Observations

Time (PST) Temp. Windchill Dew Point Humidity Pressure Visibility Wind Dir Wind Speed Gust Speed Precip Events Conditions
12:53 AM 42.1 °F 39.2 °F 41.0 °F 96% 30.50 in 10.0 mi NE 4.6 mph - N/A   Clear
1:53 AM 39.9 °F 35.1 °F 39.0 °F 97% 30.49 in 6.0 mi North 6.9 mph - N/A   Clear
2:14 AM 42.8 °F 38.0 °F 41.0 °F 93% 30.48 in 6.0 mi NNE 8.1 mph - N/A   Scattered Clouds
2:23 AM 42.8 °F 39.3 °F 42.8 °F 100% 30.48 in 6.0 mi NNE 5.8 mph - N/A   Mostly Cloudy
2:53 AM 43.0 °F 38.8 °F 42.1 °F 97% 30.48 in 5.0 mi NNE 6.9 mph - N/A   Overcast
3:22 AM 42.8 °F 37.5 °F 42.8 °F 100% 30.46 in 7.0 mi North 9.2 mph - N/A   Overcast
3:53 AM 41.0 °F 36.4 °F 41.0 °F 100% 30.45 in 7.0 mi North 6.9 mph - N/A   Scattered Clouds
4:14 AM 42.8 °F 39.3 °F 41.0 °F 93% 30.44 in 7.0 mi NNE 5.8 mph - N/A   Mostly Cloudy
4:53 AM 43.0 °F 38.2 °F 42.1 °F 97% 30.44 in 10.0 mi NNE 8.1 mph - N/A   Overcast
5:53 AM 43.0 °F 38.2 °F 41.0 °F 93% 30.43 in 10.0 mi NNE 8.1 mph - N/A   Overcast
6:53 AM 43.0 °F 38.8 °F 41.0 °F 93% 30.41 in 10.0 mi NNE 6.9 mph - N/A   Overcast
7:53 AM 41.0 °F 38.0 °F 39.9 °F 96% 30.41 in 10.0 mi North 4.6 mph - N/A   Scattered Clouds
8:36 AM 44.6 °F 41.4 °F 41.0 °F 87% 30.40 in 10.0 mi NNE 5.8 mph - N/A   Partly Cloudy
8:53 AM 45.0 °F 42.6 °F 41.0 °F 86% 30.41 in 10.0 mi NNE 4.6 mph - N/A   Partly Cloudy
9:53 AM 46.9 °F - 41.0 °F 80% 30.40 in 10.0 mi NNE 8.1 mph - N/A   Scattered Clouds
10:53 AM 50.0 °F - 42.1 °F 74% 30.38 in 10.0 mi Calm Calm - N/A   Clear
11:53 AM 52.0 °F - 43.0 °F 71% 30.35 in 10.0 mi Calm Calm - N/A   Clear
12:53 PM 55.9 °F - 42.1 °F 60% 30.31 in 10.0 mi Variable 3.5 mph - N/A   Clear
1:53 PM 59.0 °F - 42.1 °F 53% 30.27 in 10.0 mi ENE 4.6 mph - N/A   Clear
2:53 PM 59.0 °F - 43.0 °F 55% 30.25 in 10.0 mi Calm Calm - N/A   Clear
4:53 PM 62.1 °F - 43.0 °F 50% 30.22 in 10.0 mi Calm Calm - N/A   Clear
5:53 PM 55.0 °F - 44.1 °F 67% 30.22 in 10.0 mi SSW 4.6 mph - N/A   Clear
6:53 PM 52.0 °F - 45.0 °F 77% 30.22 in 10.0 mi Calm Calm - N/A   Clear
7:53 PM 48.0 °F - 44.1 °F 86% 30.23 in 10.0 mi South 6.9 mph - N/A   Clear
8:53 PM 46.0 °F - 43.0 °F 89% 30.24 in 10.0 mi Calm Calm - N/A   Clear
9:53 PM 45.0 °F - 42.1 °F 90% 30.26 in 10.0 mi Calm Calm - N/A   Clear
10:53 PM 43.0 °F 40.3 °F 42.1 °F 97% 30.25 in 8.0 mi SE 4.6 mph - N/A   Clear
11:53 PM 39.9 °F - 39.0 °F 97% 30.25 in 4.0 mi Calm Calm - N/A   Clear